Location: Newark
(48.2103°N, 16.3662°E)
Time: 09:48:05
(UTC+00:00)

N. Korean satellite - Visible Passes

Search period start: 30 September 2020 00:00
Search period end: 10 October 2020 00:00
Orbit: 455 x 503 km, 97.2° (Epoch: 29 September)

Date Brightness Start Highest point End Pass type
(mag) Time Alt. Az. Time Alt. Az. Time Alt. Az.
01 Oct 7.7 04:16:36 10° NNE 04:20:08 49° E 04:23:34 10° S visible
02 Oct 9.2 03:50:57 10° NE 03:53:57 24° E 03:56:54 10° SSE visible
03 Oct 10.0 03:25:58 10° ENE 03:27:40 13° E 03:29:21 10° ESE visible
05 Oct 8.4 04:05:52 10° NNE 04:09:12 36° E 04:12:28 10° SSE visible
06 Oct 9.7 03:40:23 10° NE 03:42:58 19° E 03:45:30 10° SE visible
08 Oct 7.4 04:20:51 10° NNE 04:24:22 56° E 04:27:47 10° S visible
09 Oct 9.0 03:55:06 10° NE 03:58:11 27° E 04:01:11 10° SSE visible
